Starlink 32152

operational
NORAD ID: 60275 Int'l Des: 2024-131 Owner: SPXS Country: US Constellation: starlink
LEOCIRCULAR

关于 Starlink 32152

正在加载描述...

实时位置

正在加载3D地球...

即将过境

高度历史

Altitude vs Time

uPlot chart will show altitude changes over time

两行轨道根数

1 60275U 24131W 25352.51546284 -.00000618 00000-0 -87403-5 0 9997
2 60275 53.1606 69.2503 0001024 66.0612 294.0496 15.30193941 79192
Epoch: Dec 18, 2025 • Age: 9 hours

当前状态

高度 480.5 km
速度 7.63 km/s
星下点 -19.15°S, 0.37°W
发射日期 Jul 27, 2024
运行时间 1.3 years
类型 internet

技术详情

分类 Payload
质量 730.00 kg
干质量 700.00 kg
总质量 730.00 kg
长度 0.30 m
直径 4.10 m
跨度 29.00 m
形状 Box + pan
制造商 SPXS
平台类型 Starlink V2M
阶段状态 In Orbit
所有者/国家 SPXS/US

大型星座

Loading constellations...